TimeCST,TemperatureF,Dew PointF,Humidity,Sea Level PressureIn,VisibilityMPH,Wind Direction,Wind SpeedMPH,Gust SpeedMPH,PrecipitationIn,Events,Conditions,WindDirDegrees,DateUTC
12:53 AM,64.0,57.9,80,30.11,10.0,East,5.8,-,N/A,,Clear,80,2013-11-06 06:53:00
1:53 AM,62.1,57.0,84,30.10,10.0,East,3.5,-,N/A,,Clear,90,2013-11-06 07:53:00
2:53 AM,62.1,57.0,84,30.09,10.0,ENE,3.5,-,N/A,,Clear,70,2013-11-06 08:53:00
3:53 AM,61.0,55.9,83,30.10,10.0,Calm,Calm,-,N/A,,Clear,0,2013-11-06 09:53:00
4:53 AM,60.1,55.9,86,30.10,10.0,Calm,Calm,-,N/A,,Clear,0,2013-11-06 10:53:00
5:53 AM,59.0,55.0,87,30.11,10.0,NE,3.5,-,N/A,,Clear,50,2013-11-06 11:53:00
6:53 AM,60.1,55.9,86,30.11,10.0,NE,4.6,-,N/A,,Clear,50,2013-11-06 12:53:00
7:53 AM,64.0,57.9,80,30.12,10.0,ENE,4.6,-,N/A,,Clear,70,2013-11-06 13:53:00
8:53 AM,69.1,62.1,78,30.12,10.0,ESE,5.8,-,N/A,,Partly Cloudy,120,2013-11-06 14:53:00
9:53 AM,75.9,66.0,71,30.12,10.0,Variable,6.9,-,N/A,,Clear,0,2013-11-06 15:53:00
10:21 AM,77.0,68.0,74,30.12,10.0,ESE,5.8,17.3,N/A,,Mostly Cloudy,120,2013-11-06 16:21:00
10:53 AM,79.0,69.1,72,30.11,10.0,SE,8.1,-,N/A,,Mostly Cloudy,130,2013-11-06 16:53:00
11:29 AM,78.8,68.0,69,30.10,10.0,ESE,13.8,-,N/A,,Overcast,120,2013-11-06 17:29:00
11:39 AM,78.8,68.0,69,30.10,10.0,SE,8.1,17.3,N/A,,Overcast,130,2013-11-06 17:39:00
11:53 AM,78.1,69.1,74,30.09,10.0,ESE,8.1,-,N/A,,Overcast,110,2013-11-06 17:53:00
12:05 PM,78.8,68.0,69,30.09,10.0,SE,10.4,18.4,N/A,,Overcast,130,2013-11-06 18:05:00
12:53 PM,79.0,69.1,72,30.06,10.0,ESE,10.4,21.9,N/A,,Overcast,120,2013-11-06 18:53:00
1:16 PM,78.8,68.0,69,30.06,10.0,SE,10.4,21.9,N/A,,Overcast,130,2013-11-06 19:16:00
1:42 PM,78.8,68.0,69,30.06,10.0,SE,12.7,-,N/A,,Overcast,130,2013-11-06 19:42:00
1:53 PM,78.1,69.1,74,30.06,10.0,ESE,8.1,16.1,N/A,,Overcast,120,2013-11-06 19:53:00
2:20 PM,77.0,69.8,78,30.05,10.0,ESE,8.1,18.4,N/A,,Overcast,120,2013-11-06 20:20:00
2:53 PM,77.0,69.1,76,30.05,10.0,ESE,8.1,-,N/A,,Overcast,110,2013-11-06 20:53:00
3:53 PM,75.9,69.1,79,30.05,10.0,ESE,11.5,-,N/A,,Overcast,110,2013-11-06 21:53:00
4:32 PM,75.2,69.8,83,30.04,10.0,ESE,9.2,-,N/A,,Overcast,110,2013-11-06 22:32:00
4:40 PM,75.2,69.8,83,30.05,10.0,ESE,5.8,-,N/A,,Overcast,120,2013-11-06 22:40:00
4:53 PM,75.0,69.1,82,30.05,10.0,ESE,6.9,-,N/A,,Overcast,120,2013-11-06 22:53:00
5:53 PM,73.9,69.1,85,30.06,10.0,SE,8.1,18.4,N/A,,Overcast,140,2013-11-06 23:53:00
6:18 PM,73.4,69.8,88,30.07,10.0,SE,5.8,-,N/A,,Overcast,140,2013-11-07 00:18:00
6:29 PM,73.4,69.8,88,30.07,10.0,SE,6.9,-,N/A,,Overcast,140,2013-11-07 00:29:00
6:39 PM,73.4,69.8,88,30.07,10.0,SE,4.6,-,N/A,,Overcast,130,2013-11-07 00:39:00
6:48 PM,73.4,69.8,88,30.07,10.0,ESE,6.9,-,N/A,,Overcast,120,2013-11-07 00:48:00
6:53 PM,73.0,69.1,87,30.07,10.0,SE,6.9,-,N/A,,Overcast,140,2013-11-07 00:53:00
7:08 PM,73.4,69.8,88,30.07,10.0,SE,4.6,-,N/A,,Mostly Cloudy,130,2013-11-07 01:08:00
7:16 PM,71.6,69.8,94,30.07,10.0,SE,8.1,-,N/A,,Mostly Cloudy,130,2013-11-07 01:16:00
7:49 PM,71.6,69.8,94,30.07,10.0,Calm,Calm,-,N/A,,Overcast,0,2013-11-07 01:49:00
7:53 PM,72.0,69.1,91,30.08,10.0,Calm,Calm,-,N/A,,Overcast,0,2013-11-07 01:53:00
8:53 PM,72.0,69.1,91,30.08,10.0,Calm,Calm,-,N/A,,Mostly Cloudy,0,2013-11-07 02:53:00
9:09 PM,71.6,69.8,94,30.08,10.0,Calm,Calm,-,N/A,,Overcast,0,2013-11-07 03:09:00
9:18 PM,71.6,69.8,94,30.08,10.0,Calm,Calm,-,N/A,,Overcast,0,2013-11-07 03:18:00
9:53 PM,71.1,69.1,93,30.08,10.0,Calm,Calm,-,0.00,,Overcast,0,2013-11-07 03:53:00
10:32 PM,71.6,69.8,94,30.07,10.0,Calm,Calm,-,0.00,Rain,Light Rain,0,2013-11-07 04:32:00
10:46 PM,71.6,69.8,94,30.08,2.5,Calm,Calm,-,0.02,Rain,Rain,0,2013-11-07 04:46:00
10:53 PM,71.1,69.1,93,30.08,2.0,Calm,Calm,-,0.02,Rain,Light Rain,0,2013-11-07 04:53:00
11:13 PM,71.6,69.8,94,30.08,3.0,NNW,3.5,-,0.03,Rain,Light Rain,330,2013-11-07 05:13:00
11:23 PM,71.6,69.8,94,30.07,2.5,North,4.6,-,0.04,Rain,Light Rain,360,2013-11-07 05:23:00
11:32 PM,71.6,69.8,94,30.07,4.0,North,5.8,-,0.04,Rain,Light Rain,350,2013-11-07 05:32:00
11:53 PM,70.0,68.0,93,30.07,10.0,NNE,4.6,-,0.04,,Overcast,30,2013-11-07 05:53:00